Погода в Матаиве

Французская Полинезия     14°51′23″S   148°39′45″W
темп.,
°C
ветер,
м/с
пор.,
м/с
влажн.,
%
обл.,
%
осадки,
мм/ч
давл.,
гПа
погр.,
м
1 марта, пн
пн123:00+26ссз6684100 5.6 1013296
02:00+25юз4489100 12.0 1012273
05:00+25ююз3388100 3.4 1011198
08:00+26в2376100 3.7 1014302
11:00+27всв1171100 0.0 1012278
14:00+27в1169100 0.0 1011473
17:00+28вюв116782 0.0 1010649
20:00+28в126880 0.0 1013648
2 марта, вт
вт223:00+28ссв116921 0.0 1012688
02:00+28ссв116914 0.0 1011685
05:00+28ссв22707 0.0 1011743
08:00+28ссв337131 0.0 1013758
11:00+28ссв226849 0.0 1012822
14:00+28ссв226751 0.0 1010827
17:00+28ссз116414 0.0 1009832
20:00+28св106457 0.0 1012829
3 марта, ср
ср323:00+28св2167100 0.0 1012695
02:00+28с116862 0.0 1010692
05:00+28св00680 0.0 1010755
08:00+28ююз116827 0.0 1013565
11:00+28всв116649 0.0 1012531
14:00+28с446957 0.0 1010824
17:00+28ссв227049 0.0 1009903
20:00+28с227074 0.3 1011526
4 марта, чт
чт423:00+28св227394 3.3 1012311
02:00+28с227077 3.6 1010709
05:00+28ссв226933 0.0 1010798
08:00+28св437045 0.1 1012871
11:00+28ссв447036 0.0 1012916
14:00+28св336731 0.0 1010937
17:00+28св23634 0.0 1010712
20:00+28в22623 0.0 1012834
5 марта, пт
пт523:00+28в33639 0.0 1013880
02:00+28в336448 0.0 1011848
05:00+28всв446542 0.0 1012822
08:00+28всв446444 0.0 1013855
11:00+28всв446551 0.0 1013844
14:00+28в336132 0.0 10111031
17:00+28в336312 0.0 10101000
20:00+28в346550 0.0 1012982